Location: Unspecified
(0.0000°N, 0.0000°E)
Time: 11:15:34
(UTC+00:00)

Courier 1B - Pass Details

Date: 26 November 2019
Orbit: 963 x 1209 km, 28.3° (Epoch: 14 December)

Event Time Altitude Azimuth Distance (km) Brightness Sun altitude
Rises 01:40:38 0° 276° (W) 4,102 - -55.3°
Reaches altitude 10° 01:44:31 10° 293° (WNW) 3,122 - -54.5°
Maximum altitude 01:49:42 19° 335° (NNW) 2,473 - -53.5°
Drops below altitude 10° 01:54:46 10° 18° (NNE) 3,036 - -52.5°
Sets 01:58:30 0° 35° (NE) 3,951 - -51.7°
